| time (UTC) | temp C | wind direction | speed KPH | gust KPH | rain 1hr cm | rain 24hr cm | rain mn cm | humidity % | barometer mb |
| 20260508131504 | 11 | 80 | 0.0 | 4.8 | 0.00 | 0.00 | 0.00 | 74 | 1016.2 |
| 20260508131002 | 10 | 74 | 0.0 | 4.8 | 0.00 | 0.00 | 0.00 | 76 | 1016.2 |
| 20260508130600 | 10 | 102 | 0.0 | 4.8 | 0.00 | 0.00 | 0.00 | 76 | 1016.2 |
| 20260508125557 | 10 | 110 | 0.0 | 4.8 | 0.00 | 0.00 | 0.00 | 80 | 1016.4 |
| 20260508125055 | 9 | 114 | 0.0 | 4.8 | 0.00 | 0.00 | 0.00 | 81 | 1016.3 |
| 20260508124553 | 9 | 119 | 0.0 | 4.8 | 0.00 | 0.00 | 0.00 | 82 | 1016.3 |
| 20260508124052 | 8 | 74 | 0.0 | 4.8 | 0.00 | 0.00 | 0.00 | 83 | 1016.2 |
| 20260508123550 | 8 | 110 | 0.0 | 1.6 | 0.00 | 0.00 | 0.00 | 84 | 1016.2 |
| 20260508123049 | 8 | 140 | 0.0 | 0.0 | 0.00 | 0.00 | 0.00 | 88 | 1016.3 |
| 20260508122547 | 7 | 123 | 0.0 | 0.0 | 0.00 | 0.00 | 0.00 | 88 | 1016.1 |
| 20260508122046 | 7 | 127 | 0.0 | 0.0 | 0.00 | 0.00 | 0.00 | 89 | 1016.1 |
| 20260508121600 | 7 | 127 | 0.0 | 0.0 | 0.00 | 0.00 | 0.00 | 91 | 1016.2 |
| 20260508121043 | 7 | 141 | 0.0 | 0.0 | 0.00 | 0.00 | 0.00 | 93 | 1016.1 |
| 20260508120541 | 6 | 142 | 0.0 | 1.6 | 0.00 | 0.00 | 0.00 | 94 | 1016.1 |
| 20260508120040 | 6 | 209 | 0.0 | 1.6 | 0.00 | 0.00 | 0.00 | 95 | 1016.0 |
| 20260508115543 | 6 | 290 | 0.0 | 0.0 | 0.00 | 0.00 | 0.00 | 95 | 1016.1 |
| 20260508115036 | 5 | 290 | 0.0 | 0.0 | 0.00 | 0.00 | 0.00 | 95 | 1016.2 |
| 20260508114537 | 5 | 290 | 0.0 | 0.0 | 0.00 | 0.00 | 0.00 | 95 | 1016.1 |
| 20260508114034 | 5 | 290 | 0.0 | 0.0 | 0.00 | 0.00 | 0.00 | 95 | 1016.2 |
| 20260508113539 | 4 | 290 | 0.0 | 0.0 | 0.00 | 0.00 | 0.00 | 95 | 1016.1 |
| 20260508113033 | 3 | 290 | 0.0 | 0.0 | 0.00 | 0.00 | 0.00 | 95 | 1016.2 |
| 20260508112533 | 3 | 290 | 0.0 | 0.0 | 0.00 | 0.00 | 0.00 | 94 | 1016.1 |
| 20260508112031 | 3 | 290 | 0.0 | 0.0 | 0.00 | 0.00 | 0.00 | 94 | 1016.1 |
| 20260508111530 | 3 | 290 | 0.0 | 0.0 | 0.00 | 0.00 | 0.00 | 94 | 1016.0 |
| 20260508111030 | 3 | 290 | 0.0 | 0.0 | 0.00 | 0.00 | 0.00 | 94 | 1015.8 |
| 20260508110529 | 2 | 290 | 0.0 | 0.0 | 0.00 | 0.00 | 0.00 | 94 | 1015.8 |
| 20260508110031 | 2 | 290 | 0.0 | 0.0 | 0.00 | 0.00 | 0.00 | 94 | 1015.8 |
| 20260508105527 | 2 | 290 | 0.0 | 0.0 | 0.00 | 0.00 | 0.00 | 94 | 1015.8 |
| 20260508105028 | 2 | 290 | 0.0 | 0.0 | 0.00 | 0.00 | 0.00 | 94 | 1015.8 |
| 20260508104527 | 2 | 290 | 0.0 | 0.0 | 0.00 | 0.00 | 0.00 | 94 | 1015.9 |
| 20260508104025 | 2 | 290 | 0.0 | 0.0 | 0.00 | 0.00 | 0.00 | 94 | 1015.8 |
| 20260508103526 | 2 | 290 | 0.0 | 0.0 | 0.00 | 0.00 | 0.00 | 94 | 1015.8 |
| 20260508103025 | 2 | 290 | 0.0 | 0.0 | 0.00 | 0.00 | 0.00 | 94 | 1015.7 |
| 20260508102523 | 2 | 290 | 0.0 | 0.0 | 0.00 | 0.00 | 0.00 | 94 | 1015.6 |
| 20260508102023 | 2 | 290 | 0.0 | 0.0 | 0.00 | 0.00 | 0.00 | 94 | 1015.6 |
| 20260508101523 | 2 | 290 | 0.0 | 0.0 | 0.00 | 0.00 | 0.00 | 94 | 1015.5 |
| 20260508101025 | 2 | 290 | 0.0 | 0.0 | 0.00 | 0.00 | 0.00 | 94 | 1015.5 |
| 20260508100522 | 2 | 290 | 0.0 | 0.0 | 0.00 | 0.00 | 0.00 | 94 | 1015.4 |
| 20260508100022 | 2 | 290 | 0.0 | 0.0 | 0.00 | 0.00 | 0.00 | 94 | 1015.4 |
| 20260508095523 | 2 | 290 | 0.0 | 0.0 | 0.00 | 0.00 | 0.00 | 94 | 1015.3 |
| 20260508095020 | 2 | 290 | 0.0 | 0.0 | 0.00 | 0.00 | 0.00 | 94 | 1015.4 |
| 20260508094522 | 2 | 290 | 0.0 | 0.0 | 0.00 | 0.00 | 0.00 | 94 | 1015.3 |
| 20260508094020 | 2 | 290 | 0.0 | 0.0 | 0.00 | 0.00 | 0.00 | 94 | 1015.2 |
| 20260508093520 | 2 | 290 | 0.0 | 0.0 | 0.00 | 0.00 | 0.00 | 93 | 1015.1 |
| 20260508093023 | 2 | 290 | 0.0 | 0.0 | 0.00 | 0.00 | 0.00 | 94 | 1015.2 |
| 20260508092519 | 2 | 290 | 0.0 | 0.0 | 0.00 | 0.00 | 0.00 | 93 | 1015.3 |
| 20260508092019 | 2 | 290 | 0.0 | 0.0 | 0.00 | 0.00 | 0.00 | 94 | 1015.4 |
| 20260508091518 | 3 | 290 | 0.0 | 0.0 | 0.00 | 0.00 | 0.00 | 93 | 1015.4 |
| 20260508091018 | 3 | 290 | 0.0 | 0.0 | 0.00 | 0.00 | 0.00 | 93 | 1015.3 |
| 20260508090518 | 2 | 290 | 0.0 | 0.0 | 0.00 | 0.00 | 0.00 | 93 | 1015.2 |
| 20260508090018 | 3 | 290 | 0.0 | 0.0 | 0.00 | 0.00 | 0.00 | 93 | 1015.1 |
| 20260508085521 | 3 | 290 | 0.0 | 0.0 | 0.00 | 0.00 | 0.00 | 93 | 1015.2 |
| 20260508085015 | 3 | 290 | 0.0 | 0.0 | 0.00 | 0.00 | 0.00 | 93 | 1015.2 |
| 20260508084516 | 3 | 290 | 0.0 | 0.0 | 0.00 | 0.00 | 0.00 | 93 | 1015.2 |
| 20260508084016 | 3 | 290 | 0.0 | 0.0 | 0.00 | 0.00 | 0.00 | 93 | 1015.1 |
| 20260508083516 | 3 | 290 | 0.0 | 0.0 | 0.00 | 0.00 | 0.00 | 93 | 1015.0 |
| 20260508083041 | 3 | 290 | 0.0 | 0.0 | 0.00 | 0.00 | 0.00 | 93 | 1015.1 |
| 20260508082514 | 3 | 290 | 0.0 | 0.0 | 0.00 | 0.00 | 0.00 | 93 | 1015.1 |
| 20260508082020 | 3 | 290 | 0.0 | 0.0 | 0.00 | 0.00 | 0.00 | 93 | 1015.1 |
| 20260508081514 | 3 | 290 | 0.0 | 0.0 | 0.00 | 0.00 | 0.00 | 93 | 1015.0 |
| 20260508081014 | 3 | 290 | 0.0 | 0.0 | 0.00 | 0.00 | 0.00 | 93 | 1015.0 |
| 20260508080514 | 3 | 290 | 0.0 | 0.0 | 0.00 | 0.00 | 0.00 | 93 | 1015.0 |
| 20260508080016 | 3 | 290 | 0.0 | 0.0 | 0.00 | 0.00 | 0.00 | 93 | 1015.0 |
| 20260508075512 | 3 | 290 | 0.0 | 0.0 | 0.00 | 0.00 | 0.00 | 92 | 1015.0 |
| 20260508075011 | 3 | 290 | 0.0 | 0.0 | 0.00 | 0.00 | 0.00 | 92 | 1015.1 |
| 20260508074512 | 3 | 290 | 0.0 | 0.0 | 0.00 | 0.00 | 0.00 | 92 | 1015.0 |
| 20260508074012 | 3 | 290 | 0.0 | 0.0 | 0.00 | 0.00 | 0.00 | 92 | 1015.0 |
| 20260508073511 | 3 | 290 | 0.0 | 0.0 | 0.00 | 0.00 | 0.00 | 92 | 1014.9 |
| 20260508073011 | 3 | 290 | 0.0 | 0.0 | 0.00 | 0.00 | 0.00 | 92 | 1014.9 |
| 20260508072510 | 3 | 290 | 0.0 | 0.0 | 0.00 | 0.00 | 0.00 | 92 | 1015.0 |
| 20260508072010 | 3 | 290 | 0.0 | 0.0 | 0.00 | 0.00 | 0.00 | 92 | 1014.9 |
| 20260508071511 | 3 | 290 | 0.0 | 0.0 | 0.00 | 0.00 | 0.00 | 92 | 1014.9 |
| 20260508071009 | 3 | 290 | 0.0 | 0.0 | 0.00 | 0.00 | 0.00 | 91 | 1014.8 |
| 20260508070509 | 3 | 290 | 0.0 | 0.0 | 0.00 | 0.00 | 0.00 | 91 | 1015.0 |
| 20260508070012 | 3 | 290 | 0.0 | 0.0 | 0.00 | 0.00 | 0.00 | 91 | 1014.9 |
| 20260508065508 | 3 | 290 | 0.0 | 0.0 | 0.00 | 0.00 | 0.00 | 91 | 1015.1 |
| 20260508065008 | 3 | 290 | 0.0 | 0.0 | 0.00 | 0.00 | 0.00 | 91 | 1014.9 |
| 20260508064522 | 3 | 290 | 0.0 | 0.0 | 0.00 | 0.00 | 0.00 | 91 | 1014.9 |
| 20260508064006 | 3 | 290 | 0.0 | 0.0 | 0.00 | 0.00 | 0.00 | 91 | 1015.0 |
| 20260508063507 | 3 | 290 | 0.0 | 0.0 | 0.00 | 0.00 | 0.00 | 91 | 1015.0 |
| 20260508063006 | 3 | 290 | 0.0 | 0.0 | 0.00 | 0.00 | 0.00 | 91 | 1015.0 |
| 20260508062508 | 3 | 290 | 0.0 | 0.0 | 0.00 | 0.00 | 0.00 | 91 | 1015.0 |
| 20260508062005 | 3 | 290 | 0.0 | 0.0 | 0.00 | 0.00 | 0.00 | 91 | 1014.9 |
| 20260508061505 | 3 | 290 | 0.0 | 0.0 | 0.00 | 0.00 | 0.00 | 91 | 1014.9 |
| 20260508061005 | 3 | 290 | 0.0 | 0.0 | 0.00 | 0.00 | 0.00 | 90 | 1014.9 |
| 20260508060606 | 3 | 290 | 0.0 | 0.0 | 0.00 | 0.00 | 0.00 | 90 | 1015.0 |
| 20260508060003 | 3 | 290 | 0.0 | 0.0 | 0.00 | 0.00 | 0.00 | 90 | 1014.9 |
| 20260508055504 | 3 | 290 | 0.0 | 0.0 | 0.00 | 0.00 | 0.00 | 89 | 1014.8 |
| 20260508055002 | 4 | 290 | 0.0 | 0.0 | 0.00 | 0.00 | 0.00 | 89 | 1015.0 |
| 20260508054502 | 4 | 290 | 0.0 | 0.0 | 0.00 | 0.00 | 0.00 | 89 | 1014.9 |
| 20260508054001 | 4 | 290 | 0.0 | 0.0 | 0.00 | 0.00 | 0.00 | 89 | 1015.0 |
| 20260508053501 | 4 | 290 | 0.0 | 0.0 | 0.00 | 0.00 | 0.00 | 89 | 1015.0 |
| 20260508053106 | 4 | 290 | 0.0 | 0.0 | 0.00 | 0.00 | 0.00 | 88 | 1015.0 |
| 20260508052559 | 4 | 290 | 0.0 | 0.0 | 0.00 | 0.00 | 0.00 | 88 | 1015.0 |
| 20260508052100 | 4 | 290 | 0.0 | 0.0 | 0.00 | 0.00 | 0.00 | 88 | 1015.1 |
| 20260508051558 | 4 | 290 | 0.0 | 0.0 | 0.00 | 0.00 | 0.00 | 88 | 1014.9 |
| 20260508051059 | 4 | 290 | 0.0 | 0.0 | 0.00 | 0.00 | 0.00 | 88 | 1015.0 |
| 20260508050559 | 4 | 290 | 0.0 | 0.0 | 0.00 | 0.00 | 0.00 | 88 | 1014.9 |
| 20260508045558 | 4 | 290 | 0.0 | 0.0 | 0.00 | 0.00 | 0.00 | 88 | 1015.0 |
| 20260508045101 | 4 | 290 | 0.0 | 0.0 | 0.00 | 0.00 | 0.00 | 87 | 1014.9 |
| 20260508044556 | 5 | 290 | 0.0 | 0.0 | 0.00 | 0.00 | 0.00 | 87 | 1014.9 |
| 20260508044058 | 5 | 290 | 0.0 | 0.0 | 0.00 | 0.00 | 0.00 | 88 | 1015.0 |
| 20260508043554 | 5 | 290 | 0.0 | 0.0 | 0.00 | 0.00 | 0.00 | 87 | 1014.9 |
| 20260508043054 | 5 | 290 | 0.0 | 0.0 | 0.00 | 0.00 | 0.00 | 87 | 1014.9 |
| 20260508042553 | 5 | 290 | 0.0 | 0.0 | 0.00 | 0.00 | 0.00 | 86 | 1014.9 |
| 20260508042056 | 5 | 290 | 0.0 | 0.0 | 0.00 | 0.00 | 0.00 | 86 | 1014.8 |
| 20260508041555 | 5 | 290 | 0.0 | 0.0 | 0.00 | 0.00 | 0.00 | 86 | 1014.9 |
| 20260508041052 | 5 | 290 | 0.0 | 0.0 | 0.00 | 0.00 | 0.00 | 86 | 1014.9 |
| 20260508040551 | 5 | 290 | 0.0 | 0.0 | 0.00 | 0.00 | 0.00 | 85 | 1014.9 |
| 20260508040049 | 5 | 290 | 0.0 | 0.0 | 0.00 | 0.00 | 0.00 | 84 | 1014.8 |
| 20260508035548 | 5 | 290 | 0.0 | 0.0 | 0.00 | 0.00 | 0.00 | 83 | 1014.7 |
| 20260508035047 | 6 | 290 | 0.0 | 0.0 | 0.00 | 0.00 | 0.00 | 83 | 1014.8 |
| 20260508034551 | 6 | 290 | 0.0 | 0.0 | 0.00 | 0.00 | 0.00 | 82 | 1014.8 |
| 20260508034047 | 6 | 290 | 0.0 | 0.0 | 0.00 | 0.00 | 0.00 | 82 | 1014.8 |
| 20260508033546 | 6 | 290 | 0.0 | 0.0 | 0.00 | 0.00 | 0.00 | 82 | 1014.8 |
| 20260508033046 | 6 | 290 | 0.0 | 0.0 | 0.00 | 0.00 | 0.00 | 81 | 1014.7 |
| 20260508032545 | 6 | 290 | 0.0 | 0.0 | 0.00 | 0.00 | 0.00 | 81 | 1014.8 |
| 20260508032047 | 6 | 290 | 0.0 | 0.0 | 0.00 | 0.00 | 0.00 | 82 | 1014.8 |
| 20260508031544 | 6 | 290 | 0.0 | 0.0 | 0.00 | 0.00 | 0.00 | 80 | 1014.8 |
| 20260508031043 | 6 | 290 | 0.0 | 0.0 | 0.00 | 0.00 | 0.00 | 79 | 1014.8 |
| 20260508030542 | 6 | 290 | 0.0 | 0.0 | 0.00 | 0.00 | 0.00 | 79 | 1014.7 |
| 20260508030053 | 6 | 290 | 0.0 | 0.0 | 0.00 | 0.00 | 0.00 | 79 | 1014.6 |
| 20260508025540 | 7 | 290 | 0.0 | 0.0 | 0.00 | 0.00 | 0.00 | 78 | 1014.7 |
| 20260508025040 | 7 | 290 | 0.0 | 0.0 | 0.00 | 0.00 | 0.00 | 78 | 1014.6 |
| 20260508024552 | 7 | 290 | 0.0 | 0.0 | 0.00 | 0.00 | 0.00 | 78 | 1014.5 |
| 20260508024039 | 7 | 290 | 0.0 | 0.0 | 0.00 | 0.00 | 0.00 | 78 | 1014.4 |
| 20260508023538 | 7 | 290 | 0.0 | 0.0 | 0.00 | 0.00 | 0.00 | 77 | 1014.3 |
| 20260508023038 | 7 | 290 | 0.0 | 0.0 | 0.00 | 0.00 | 0.00 | 76 | 1014.1 |
| 20260508022536 | 7 | 290 | 0.0 | 0.0 | 0.00 | 0.00 | 0.00 | 75 | 1014.2 |
| 20260508022036 | 7 | 290 | 0.0 | 0.0 | 0.00 | 0.00 | 0.00 | 75 | 1014.1 |
| 20260508021535 | 7 | 290 | 0.0 | 0.0 | 0.00 | 0.00 | 0.00 | 74 | 1014.0 |
| 20260508021037 | 7 | 290 | 0.0 | 0.0 | 0.00 | 0.00 | 0.00 | 73 | 1014.0 |
| 20260508020533 | 7 | 290 | 0.0 | 0.0 | 0.00 | 0.00 | 0.00 | 72 | 1013.9 |
| 20260508020033 | 8 | 290 | 0.0 | 0.0 | 0.00 | 0.00 | 0.00 | 71 | 1013.8 |
| 20260508015532 | 8 | 290 | 0.0 | 0.0 | 0.00 | 0.00 | 0.00 | 71 | 1013.7 |
| 20260508015031 | 8 | 290 | 0.0 | 0.0 | 0.00 | 0.00 | 0.00 | 71 | 1013.7 |
| 20260508014534 | 8 | 290 | 0.0 | 0.0 | 0.00 | 0.00 | 0.00 | 70 | 1013.6 |
| 20260508014030 | 8 | 290 | 0.0 | 0.0 | 0.00 | 0.00 | 0.00 | 70 | 1013.5 |
| 20260508013530 | 8 | 290 | 0.0 | 0.0 | 0.00 | 0.00 | 0.00 | 68 | 1013.5 |
| 20260508013027 | 8 | 290 | 0.0 | 0.0 | 0.00 | 0.00 | 0.00 | 68 | 1013.5 |
| 20260508012527 | 9 | 290 | 0.0 | 0.0 | 0.00 | 0.00 | 0.00 | 66 | 1013.3 |
| 20260508012028 | 9 | 290 | 0.0 | 0.0 | 0.00 | 0.00 | 0.00 | 66 | 1013.3 |
| 20260508011535 | 9 | 290 | 0.0 | 0.0 | 0.00 | 0.00 | 0.00 | 65 | 1013.2 |
| 20260508011026 | 10 | 290 | 0.0 | 0.0 | 0.00 | 0.00 | 0.00 | 64 | 1013.0 |
| 20260508010526 | 10 | 290 | 0.0 | 0.0 | 0.00 | 0.00 | 0.00 | 62 | 1012.9 |
| 20260508010031 | 10 | 290 | 0.0 | 0.0 | 0.00 | 0.00 | 0.00 | 62 | 1012.9 |
| 20260508005534 | 10 | 290 | 0.0 | 0.0 | 0.00 | 0.00 | 0.00 | 61 | 1012.9 |
| 20260508005026 | 11 | 290 | 0.0 | 0.0 | 0.00 | 0.00 | 0.00 | 60 | 1012.9 |
| 20260508004525 | 11 | 290 | 0.0 | 0.0 | 0.00 | 0.00 | 0.00 | 59 | 1012.8 |
| 20260508004025 | 11 | 290 | 0.0 | 0.0 | 0.00 | 0.00 | 0.00 | 59 | 1012.8 |
| 20260508003525 | 12 | 290 | 0.0 | 0.0 | 0.00 | 0.00 | 0.00 | 54 | 1012.7 |
| 20260508003034 | 13 | 290 | 0.0 | 0.0 | 0.00 | 0.00 | 0.00 | 47 | 1012.7 |
| 20260508002525 | 13 | 290 | 0.0 | 0.0 | 0.00 | 0.00 | 0.00 | 42 | 1012.6 |
| 20260508002024 | 14 | 290 | 0.0 | 1.6 | 0.00 | 0.00 | 0.00 | 42 | 1012.5 |
| 20260508001625 | 14 | 290 | 0.0 | 4.8 | 0.00 | 0.00 | 0.00 | 40 | 1012.5 |
| 20260508001024 | 14 | 288 | 0.0 | 4.8 | 0.00 | 0.00 | 0.00 | 39 | 1012.5 |
| 20260508000528 | 14 | 315 | 0.0 | 4.8 | 0.00 | 0.00 | 0.00 | 40 | 1012.5 |
| 20260508000024 | 15 | 306 | 0.0 | 4.8 | 0.00 | 0.00 | 0.00 | 40 | 1012.3 |
| 20260507235524 | 15 | 304 | 0.0 | 3.2 | 0.00 | 0.00 | 0.00 | 39 | 1012.3 |
| 20260507235027 | 15 | 306 | 0.0 | 6.4 | 0.00 | 0.00 | 0.00 | 38 | 1012.2 |
| 20260507234523 | 15 | 315 | 0.0 | 14.5 | 0.00 | 0.00 | 0.00 | 40 | 1012.2 |
| 20260507234023 | 15 | 308 | 0.0 | 14.5 | 0.00 | 0.00 | 0.00 | 38 | 1012.1 |
| 20260507233526 | 15 | 291 | 0.0 | 8.0 | 0.00 | 0.00 | 0.00 | 38 | 1012.1 |
| 20260507233023 | 16 | 326 | 1.6 | 9.7 | 0.00 | 0.00 | 0.00 | 37 | 1012.2 |
| 20260507232522 | 16 | 297 | 0.0 | 14.5 | 0.00 | 0.00 | 0.00 | 38 | 1012.0 |
| 20260507232023 | 16 | 318 | 3.2 | 17.7 | 0.00 | 0.00 | 0.00 | 38 | 1012.0 |
| 20260507231522 | 16 | 292 | 3.2 | 17.7 | 0.00 | 0.00 | 0.00 | 38 | 1012.1 |
| 20260507231022 | 16 | 298 | 0.0 | 14.5 | 0.00 | 0.00 | 0.00 | 37 | 1011.9 |
| 20260507230525 | 16 | 347 | 3.2 | 19.3 | 0.00 | 0.00 | 0.00 | 37 | 1012.0 |
| 20260507230022 | 16 | 311 | 6.4 | 19.3 | 0.00 | 0.00 | 0.00 | 37 | 1012.0 |
| 20260507225521 | 16 | 327 | 6.4 | 20.9 | 0.00 | 0.00 | 0.00 | 36 | 1011.8 |
| 20260507225022 | 17 | 350 | 6.4 | 17.7 | 0.00 | 0.00 | 0.00 | 37 | 1011.9 |
| 20260507224521 | 17 | 342 | 3.2 | 20.9 | 0.00 | 0.00 | 0.00 | 39 | 1011.7 |
| 20260507224020 | 17 | 330 | 8.0 | 20.9 | 0.00 | 0.00 | 0.00 | 36 | 1011.7 |
| 20260507223523 | 17 | 329 | 3.2 | 16.1 | 0.00 | 0.00 | 0.00 | 40 | 1011.5 |
| 20260507223022 | 17 | 329 | 4.8 | 16.1 | 0.00 | 0.00 | 0.00 | 37 | 1011.6 |
| 20260507222519 | 17 | 349 | 0.0 | 12.9 | 0.00 | 0.00 | 0.00 | 42 | 1011.7 |
| 20260507222019 | 17 | 307 | 0.0 | 14.5 | 0.00 | 0.00 | 0.00 | 37 | 1011.5 |
| 20260507221519 | 17 | 304 | 1.6 | 14.5 | 0.00 | 0.00 | 0.00 | 37 | 1011.6 |
| 20260507221019 | 17 | 345 | 0.0 | 12.9 | 0.00 | 0.00 | 0.00 | 38 | 1011.3 |
| 20260507220521 | 17 | 301 | 3.2 | 12.9 | 0.00 | 0.00 | 0.00 | 37 | 1011.5 |
| 20260507220019 | 18 | 239 | 1.6 | 12.9 | 0.00 | 0.00 | 0.00 | 38 | 1011.4 |
| 20260507215521 | 18 | 226 | 1.6 | 8.0 | 0.00 | 0.00 | 0.00 | 39 | 1011.2 |
| 20260507215018 | 18 | 304 | 0.0 | 9.7 | 0.00 | 0.00 | 0.00 | 38 | 1011.2 |
| 20260507214522 | 17 | 306 | 0.0 | 17.7 | 0.00 | 0.00 | 0.00 | 38 | 1011.1 |
| 20260507214017 | 17 | 309 | 1.6 | 12.9 | 0.00 | 0.00 | 0.00 | 40 | 1011.2 |
| 20260507213521 | 18 | 200 | 3.2 | 16.1 | 0.00 | 0.00 | 0.00 | 40 | 1011.1 |
| 20260507213026 | 17 | 333 | 1.6 | 16.1 | 0.00 | 0.00 | 0.00 | 42 | 1011.0 |
| 20260507212519 | 18 | 308 | 1.6 | 14.5 | 0.00 | 0.00 | 0.00 | 43 | 1011.2 |
| 20260507212017 | 17 | 341 | 0.0 | 14.5 | 0.00 | 0.00 | 0.00 | 46 | 1011.1 |
| 20260507211517 | 17 | 323 | 3.2 | 14.5 | 0.00 | 0.00 | 0.00 | 40 | 1011.1 |
| 20260507211016 | 17 | 355 | 0.0 | 8.0 | 0.00 | 0.00 | 0.00 | 40 | 1011.1 |
| 20260507210521 | 17 | 300 | 0.0 | 16.1 | 0.00 | 0.00 | 0.00 | 42 | 1010.9 |
| 20260507210017 | 17 | 342 | 1.6 | 20.9 | 0.00 | 0.00 | 0.00 | 42 | 1010.9 |
| 20260507205516 | 17 | 309 | 8.0 | 20.9 | 0.00 | 0.00 | 0.00 | 42 | 1010.8 |
| 20260507205015 | 18 | 326 | 3.2 | 14.5 | 0.00 | 0.00 | 0.00 | 41 | 1010.8 |
| 20260507204515 | 18 | 335 | 0.0 | 19.3 | 0.00 | 0.00 | 0.00 | 45 | 1010.7 |
| 20260507204015 | 17 | 313 | 6.4 | 19.3 | 0.00 | 0.00 | 0.00 | 39 | 1010.8 |
| 20260507203516 | 18 | 264 | 0.0 | 14.5 | 0.00 | 0.00 | 0.00 | 40 | 1010.6 |
| 20260507203016 | 18 | 265 | 1.6 | 14.5 | 0.00 | 0.00 | 0.00 | 47 | 1010.8 |
| 20260507202514 | 17 | 331 | 1.6 | 19.3 | 0.00 | 0.00 | 0.00 | 44 | 1010.7 |
| 20260507202014 | 18 | 318 | 3.2 | 16.1 | 0.00 | 0.00 | 0.00 | 44 | 1010.8 |
| 20260507201514 | 18 | 304 | 0.0 | 12.9 | 0.00 | 0.00 | 0.00 | 43 | 1010.7 |
| 20260507201015 | 18 | 296 | 1.6 | 19.3 | 0.00 | 0.00 | 0.00 | 45 | 1010.8 |
| 20260507200514 | 18 | 269 | 4.8 | 20.9 | 0.00 | 0.00 | 0.00 | 43 | 1011.0 |
| 20260507200027 | 18 | 313 | 4.8 | 20.9 | 0.00 | 0.00 | 0.00 | 47 | 1010.9 |
| 20260507195512 | 18 | 328 | 1.6 | 11.3 | 0.00 | 0.00 | 0.00 | 43 | 1010.8 |
| 20260507195011 | 18 | 323 | 0.0 | 9.7 | 0.00 | 0.00 | 0.00 | 48 | 1010.8 |
| 20260507194511 | 18 | 334 | 1.6 | 9.7 | 0.00 | 0.00 | 0.00 | 44 | 1010.9 |
| 20260507194009 | 18 | 333 | 1.6 | 16.1 | 0.00 | 0.00 | 0.00 | 45 | 1011.0 |
| 20260507193508 | 17 | 332 | 3.2 | 16.1 | 0.00 | 0.00 | 0.00 | 45 | 1011.0 |
| 20260507193009 | 17 | 360 | 3.2 | 12.9 | 0.00 | 0.00 | 0.00 | 46 | 1011.1 |
| 20260507192508 | 17 | 350 | 3.2 | 14.5 | 0.00 | 0.00 | 0.00 | 44 | 1011.1 |
| 20260507192007 | 17 | 355 | 3.2 | 14.5 | 0.00 | 0.00 | 0.00 | 44 | 1011.3 |
| 20260507191507 | 17 | 306 | 1.6 | 14.5 | 0.00 | 0.00 | 0.00 | 46 | 1011.4 |
| 20260507191006 | 17 | 345 | 3.2 | 17.7 | 0.00 | 0.00 | 0.00 | 47 | 1011.5 |
| 20260507190507 | 18 | 340 | 6.4 | 19.3 | 0.00 | 0.00 | 0.00 | 46 | 1011.6 |
| 20260507190017 | 18 | 281 | 4.8 | 19.3 | 0.00 | 0.00 | 0.00 | 47 | 1011.6 |
| 20260507185506 | 18 | 360 | 0.0 | 8.0 | 0.00 | 0.00 | 0.00 | 48 | 1011.5 |
| 20260507185005 | 17 | 333 | 1.6 | 9.7 | 0.00 | 0.00 | 0.00 | 46 | 1011.4 |
| 20260507184504 | 17 | 330 | 1.6 | 9.7 | 0.00 | 0.00 | 0.00 | 48 | 1011.5 |
| 20260507184004 | 17 | 263 | 1.6 | 9.7 | 0.00 | 0.00 | 0.00 | 47 | 1011.7 |
| 20260507183504 | 17 | 167 | 3.2 | 9.7 | 0.00 | 0.00 | 0.00 | 48 | 1011.7 |
| 20260507183011 | 17 | 33 | 0.0 | 8.0 | 0.00 | 0.00 | 0.00 | 48 | 1011.7 |
| 20260507182503 | 17 | 13 | 0.0 | 9.7 | 0.00 | 0.00 | 0.00 | 44 | 1011.7 |
| 20260507182002 | 17 | 34 | 0.0 | 14.5 | 0.00 | 0.00 | 0.00 | 61 | 1011.7 |
| 20260507181505 | 16 | 26 | 1.6 | 20.9 | 0.00 | 0.00 | 0.00 | 49 | 1011.8 |
| 20260507181003 | 17 | 329 | 3.2 | 20.9 | 0.00 | 0.00 | 0.00 | 49 | 1011.7 |
| 20260507180502 | 17 | 302 | 1.6 | 16.1 | 0.00 | 0.00 | 0.00 | 50 | 1011.6 |
| 20260507180002 | 17 | 276 | 3.2 | 19.3 | 0.00 | 0.00 | 0.00 | 52 | 1011.8 |
| 20260507175501 | 17 | 339 | 3.2 | 19.3 | 0.00 | 0.00 | 0.00 | 44 | 1011.8 |
| 20260507175001 | 17 | 188 | 0.0 | 17.7 | 0.00 | 0.00 | 0.00 | 53 | 1011.9 |
| 20260507174601 | 17 | 300 | 3.2 | 17.7 | 0.00 | 0.00 | 0.00 | 48 | 1012.0 |
| 20260507174059 | 17 | 315 | 0.0 | 9.7 | 0.00 | 0.00 | 0.00 | 50 | 1012.1 |
| 20260507173600 | 17 | 271 | 0.0 | 19.3 | 0.00 | 0.00 | 0.00 | 49 | 1012.0 |
| 20260507173100 | 16 | 333 | 8.0 | 20.9 | 0.00 | 0.00 | 0.00 | 50 | 1012.1 |
| 20260507172559 | 17 | 335 | 6.4 | 20.9 | 0.00 | 0.00 | 0.00 | 47 | 1012.1 |
| 20260507172058 | 17 | 314 | 1.6 | 12.9 | 0.00 | 0.00 | 0.00 | 49 | 1012.4 |
| 20260507171603 | 17 | 328 | 0.0 | 19.3 | 0.00 | 0.00 | 0.00 | 52 | 1012.3 |
| 20260507171057 | 16 | 322 | 3.2 | 19.3 | 0.00 | 0.00 | 0.00 | 57 | 1012.5 |
| 20260507170601 | 17 | 346 | 3.2 | 16.1 | 0.00 | 0.00 | 0.00 | 54 | 1012.6 |
| 20260507170056 | 17 | 313 | 0.0 | 14.5 | 0.00 | 0.00 | 0.00 | 55 | 1012.5 |
| 20260507165554 | 17 | 336 | 3.2 | 16.1 | 0.00 | 0.00 | 0.00 | 52 | 1012.4 |
| 20260507165057 | 16 | 309 | 3.2 | 16.1 | 0.00 | 0.00 | 0.00 | 52 | 1012.4 |
| 20260507164555 | 16 | 235 | 0.0 | 9.7 | 0.00 | 0.00 | 0.00 | 51 | 1012.5 |
| 20260507164053 | 15 | 313 | 1.6 | 9.7 | 0.00 | 0.00 | 0.00 | 53 | 1012.6 |
| 20260507163556 | 16 | 331 | 1.6 | 16.1 | 0.00 | 0.00 | 0.00 | 51 | 1012.6 |
| 20260507163052 | 16 | 338 | 1.6 | 16.1 | 0.00 | 0.00 | 0.00 | 56 | 1012.6 |
| 20260507162552 | 16 | 342 | 0.0 | 14.5 | 0.00 | 0.00 | 0.00 | 55 | 1012.6 |
| 20260507162056 | 16 | 346 | 1.6 | 8.0 | 0.00 | 0.00 | 0.00 | 53 | 1012.7 |
| 20260507161552 | 16 | 5 | 0.0 | 12.9 | 0.00 | 0.00 | 0.00 | 51 | 1012.8 |
| 20260507161052 | 16 | 5 | 3.2 | 12.9 | 0.00 | 0.00 | 0.00 | 50 | 1012.8 |
| 20260507160552 | 16 | 167 | 1.6 | 6.4 | 0.00 | 0.00 | 0.00 | 50 | 1012.8 |
| 20260507160057 | 15 | 329 | 0.0 | 6.4 | 0.00 | 0.00 | 0.00 | 51 | 1012.9 |
| 20260507155549 | 16 | 22 | 0.0 | 6.4 | 0.00 | 0.00 | 0.00 | 52 | 1012.9 |
| 20260507155048 | 15 | 315 | 1.6 | 6.4 | 0.00 | 0.00 | 0.00 | 51 | 1013.0 |
| 20260507154547 | 15 | 330 | 0.0 | 4.8 | 0.00 | 0.00 | 0.00 | 55 | 1013.1 |
| 20260507154047 | 14 | 319 | 0.0 | 16.1 | 0.00 | 0.00 | 0.00 | 56 | 1013.0 |
| 20260507153549 | 15 | 307 | 3.2 | 16.1 | 0.00 | 0.00 | 0.00 | 56 | 1013.1 |
| 20260507153051 | 15 | 329 | 1.6 | 14.5 | 0.00 | 0.00 | 0.00 | 54 | 1013.0 |
| 20260507152548 | 15 | 329 | 1.6 | 14.5 | 0.00 | 0.00 | 0.00 | 58 | 1013.0 |
| 20260507152045 | 15 | 333 | 0.0 | 6.4 | 0.00 | 0.00 | 0.00 | 53 | 1012.9 |
| 20260507151545 | 15 | 348 | 0.0 | 6.4 | 0.00 | 0.00 | 0.00 | 56 | 1013.0 |
| 20260507151045 | 15 | 328 | 0.0 | 17.7 | 0.00 | 0.00 | 0.00 | 52 | 1013.0 |
| 20260507150543 | 15 | 323 | 4.8 | 17.7 | 0.00 | 0.00 | 0.00 | 52 | 1013.0 |
| 20260507150041 | 15 | 360 | 6.4 | 14.5 | 0.00 | 0.00 | 0.00 | 52 | 1013.0 |
| 20260507145539 | 15 | 344 | 3.2 | 9.7 | 0.00 | 0.05 | 0.00 | 54 | 1013.1 |
| 20260507145037 | 15 | 348 | 1.6 | 9.7 | 0.00 | 0.05 | 0.00 | 53 | 1013.2 |
| 20260507144536 | 15 | 68 | 0.0 | 4.8 | 0.00 | 0.05 | 0.00 | 55 | 1013.0 |
| 20260507144035 | 15 | 275 | 1.6 | 14.5 | 0.00 | 0.05 | 0.00 | 57 | 1013.1 |
| 20260507143533 | 15 | 329 | 3.2 | 14.5 | 0.00 | 0.05 | 0.00 | 53 | 1013.2 |
| 20260507143032 | 15 | 329 | 1.6 | 9.7 | 0.00 | 0.05 | 0.00 | 60 | 1013.1 |
| 20260507142531 | 15 | 15 | 0.0 | 9.7 | 0.00 | 0.05 | 0.00 | 55 | 1013.1 |
| 20260507142029 | 15 | 86 | 1.6 | 9.7 | 0.00 | 0.05 | 0.00 | 57 | 1013.1 |
| 20260507141528 | 15 | 5 | 0.0 | 12.9 | 0.00 | 0.05 | 0.00 | 56 | 1013.3 |
| 20260507141030 | 15 | 11 | 3.2 | 12.9 | 0.00 | 0.05 | 0.00 | 59 | 1013.2 |
| 20260507140524 | 14 | 36 | 0.0 | 9.7 | 0.00 | 0.05 | 0.00 | 57 | 1013.5 |
| 20260507140024 | 14 | 340 | 1.6 | 14.5 | 0.00 | 0.08 | 0.00 | 56 | 1013.5 |
| 20260507135522 | 14 | 345 | 3.2 | 14.5 | 0.00 | 0.08 | 0.00 | 57 | 1013.6 |
| 20260507135022 | 14 | 320 | 0.0 | 9.7 | 0.00 | 0.08 | 0.00 | 60 | 1013.5 |
| 20260507134522 | 14 | 330 | 1.6 | 8.0 | 0.00 | 0.08 | 0.00 | 60 | 1013.6 |
| 20260507134019 | 13 | 311 | 0.0 | 4.8 | 0.00 | 0.08 | 0.00 | 64 | 1013.7 |
| 20260507133519 | 14 | 319 | 0.0 | 4.8 | 0.00 | 0.08 | 0.00 | 68 | 1013.9 |
| 20260507133018 | 13 | 320 | 0.0 | 4.8 | 0.00 | 0.08 | 0.00 | 63 | 1013.9 |
| 20260507132516 | 13 | 319 | 0.0 | 0.0 | 0.00 | 0.08 | 0.00 | 68 | 1013.9 |
| 20260507132015 | 13 | 319 | 0.0 | 0.0 | 0.00 | 0.08 | 0.00 | 66 | 1013.8 |